Zurück zum Katalog

STARLINK-5164

AktivKommunikationVLEO
NORAD 54178·PAYLOAD·🇺🇸 United States

Gestartet Oct 28, 2022 von Vandenberg Space Force Base

Loading…

Nächste Überflüge (nächste 24 Stunden)

TLE

AktuellSource: CelesTrak SupGP

Epoche: Sep 15, 2026, 02:25 UTC

1 54178C 22141X   26258.10118056 -.00036818  00000+0 -10880-2 0  2584
2 54178  53.1582 218.9570 0001313  89.1781 316.9419 15.34404083    11

Verfolge STARLINK-5164 in Echtzeit mit AllMySat

Download on the App Store